Flag for Poland Weather past 2 weeks in Lidzbark Warmiński, Poland

Now
59 °F

Passing clouds.


Feels Like: 58 °F
Forecast: 50 / 59 °F
Wind: 6 mph from South

Location: Kaliningrad/Khrabrovo Airport

Current Time: Sep 5, 2015 at 10:42:06 AM

Latest Report: Sep 5, 2015 at 10:00 AM


Visibility: N/A

Pressure: 29.74 "Hg

Humidity: 88%

Dew point: 55 °F

Location of Lidzbark WarmińskiLocation

Historic Weather in Lidzbark Warmiński — Graph

°F

Lidzbark Warmiński temperature yesterday

Maximum temperature yesterday: 68 °F (at 2:00 PM)
Minimum temperature yesterday: 50 °F (at 12:00 AM)
Average temperature yesterday: 59 °F

Past Weeks' High & Low Weather Summary

 TemperatureHumidityPressure
High86 °F (Sep 1, 12:00 PM)100% (Aug 26, 5:00 AM)30.42 "Hg (Aug 26, 5:00 AM)
Low45 °F (Aug 30, 4:30 AM)28% (Aug 24, 1:00 PM)29.65 "Hg (Sep 1, 11:00 AM)
Average64 °F73%30.01 "Hg
* Reported Aug 21 9:00 AM — Sep 5 9:00 AM, Lidzbark Warmiński, Weather by CustomWeather, © 2015

Note: Actual official high and low records may vary slightly from our data, if they occured in-between our weather recording intervals... More about our weather records

Advertising

Lidzbark Warmiński weather history for previous 24 hours

 ConditionsComfort  
Time TempWeatherWind HumidityBarometerVisibility
9:00 AM
Sat, Sep 5
55 °FScattered clouds.8 mph82%29.74 "HgN/A
8:30 AM54 °FPassing clouds.8 mph88%29.74 "HgN/A
8:00 AM54 °FPassing clouds.8 mph88%29.74 "HgN/A
7:30 AM52 °FClear.8 mph94%29.77 "Hg10 mi
7:00 AM52 °FClear.8 mph94%29.77 "Hg10 mi
6:30 AM50 °FClear.6 mph94%29.77 "Hg6 mi
6:00 AM50 °FClear.3 mph94%29.77 "Hg4 mi
5:30 AM50 °FClear.3 mph94%29.77 "Hg4 mi
5:00 AM52 °FPassing clouds.6 mph94%29.77 "Hg6 mi
4:30 AM52 °FPassing clouds.8 mph94%29.80 "Hg5 mi
4:00 AM54 °FPassing clouds.8 mph94%29.80 "Hg5 mi
3:30 AM54 °FPassing clouds.6 mph94%29.80 "Hg4 mi
3:00 AM55 °FPassing clouds.8 mph94%29.80 "Hg5 mi
2:30 AM55 °FPassing clouds.8 mph94%29.80 "Hg4 mi
2:00 AM54 °FFog.6 mph94%29.80 "Hg2 mi
1:30 AM54 °FPassing clouds.6 mph94%29.83 "Hg6 mi
1:00 AM54 °FPassing clouds.6 mph94%29.80 "HgN/A
12:00 AM57 °FSprinkles. Passing clouds.3 mph94%29.83 "Hg6 mi
11:00 PM
Fri, Sep 4
57 °FPassing clouds.6 mph88%29.83 "HgN/A
10:30 PM57 °FPassing clouds.6 mph94%29.83 "HgN/A
10:00 PM57 °FSprinkles. Passing clouds.6 mph94%29.83 "Hg6 mi
9:30 PM57 °FSprinkles. Passing clouds.3 mph94%29.83 "Hg5 mi
9:00 PM57 °FSprinkles. More clouds than sun.6 mph94%29.83 "Hg5 mi
8:00 PM61 °FPartly sunny.6 mph77%29.83 "HgN/A
7:30 PM61 °FPartly sunny.6 mph77%29.83 "HgN/A
7:00 PM61 °FPartly sunny.8 mph77%29.83 "HgN/A
6:30 PM63 °FPartly sunny.8 mph73%29.83 "HgN/A
6:00 PM63 °FPartly sunny.8 mph73%29.83 "HgN/A
5:00 PM64 °FPartly sunny.10 mph68%29.86 "HgN/A
4:30 PM64 °FSprinkles. Partly sunny.8 mph68%29.86 "HgN/A
4:00 PM64 °FScattered clouds.10 mph68%29.86 "HgN/A
3:30 PM66 °FScattered clouds.8 mph64%29.86 "HgN/A
3:00 PM66 °FScattered clouds.3 mph64%29.86 "HgN/A
2:30 PM66 °FPassing clouds.6 mph60%29.89 "HgN/A
2:00 PM68 °FPassing clouds.6 mph60%29.89 "HgN/A
1:00 PM66 °FPassing clouds.3 mph68%29.86 "HgN/A
12:30 PM66 °FPassing clouds.1 mph68%29.89 "HgN/A
12:00 PM66 °FPassing clouds.1 mph73%29.89 "HgN/A
11:30 AM63 °FPassing clouds.1 mph77%29.89 "HgN/A
11:00 AM61 °FPassing clouds.3 mph83%29.89 "HgN/A
10:30 AM61 °FPassing clouds.3 mph77%29.89 "HgN/A
10:00 AM61 °FScattered clouds.3 mph77%29.89 "HgN/A
Weather by CustomWeather, © 2015

See weather overviewHow to use our weather pages